Tracking 35331 objects as of 15-Sep-2026
HD Live streaming from Space Station
objects crossing your sky now

FREGAT DEB

Track FREGAT DEB now!
10-day predictions


NORAD ID: 45814
Int'l Code: 2011-037AY
Launch date: July 18, 2011
Source: Commonwealth of Independent States (former USSR) (CIS)
Launch site: TYURATAM MISSILE AND SPACE COMPLEX (TTMTR)

Note: This is SATELLITE DEBRIS
Your satellite tracking list
Your tracking list is empty




NASA's NSSDC Master Catalog

Two Line Element Set (TLE):
1 45814U 11037AY  26258.16300179  .00004321  00000-0  28822-1 0  9997
2 45814  51.1175 333.8826 0970066 175.0801 186.0425 11.56375290262147
Source of the keplerian elements: AFSPC